Flag for Argentina Weather past 2 weeks in Resistencia, Chaco, Argentina

Now
73 °F

Sunny.


Feels Like: 77 °F
Forecast: 54 / 77 °F
Wind: 7 mph from Southeast

Location: Resistencia Aero.

Current Time: Sep 21, 2014 at 11:56:06 AM

Latest Report: Sep 21, 2014 at 11:00 AM


Visibility: 10 mi

Pressure: 30.18 "Hg

Humidity: 47%

Dew point: 52 °F

Location of ResistenciaLocation

Historic Weather in Resistencia — Graph

°F

Resistencia temperature yesterday

Maximum temperature yesterday: 79 °F (at 4:00 PM)
Minimum temperature yesterday: 54 °F (at 5:00 AM)
Average temperature yesterday: 65 °F

Past Weeks' High & Low Weather Summary

 TemperatureHumidityPressure
High97 °F (Sep 9, 2:00 PM)100% (Sep 7, 8:00 AM)30.86 "Hg (Sep 7, 8:00 AM)
Low46 °F (Sep 16, 6:00 AM)39% (Sep 9, 2:00 PM)29.53 "Hg (Sep 9, 3:00 PM)
Average67 °F79%29.94 "Hg
* Reported Sep 6 11:00 AM — Sep 21 11:00 AM, Resistencia, Weather by CustomWeather, © 2014

Note: Actual official high and low records may vary slightly from our data, if they occured in-between our weather recording intervals... More about our weather records

Advertising

Resistencia weather history for previous 24 hours

 ConditionsComfort  
Time TempWeatherWind HumidityBarometerVisibility
11:00 AM
Sep 21
73 °FSunny.7 mph47%30.18 "Hg10 mi
10:00 AM72 °FSunny.9 mph50%30.18 "Hg10 mi
9:00 AM66 °FSunny.7 mph64%30.15 "Hg10 mi
8:00 AM54 °FSunny.No wind100%30.15 "Hg10 mi
7:00 AM52 °FClear.No wind100%30.15 "Hg4 mi
6:00 AM48 °FFog.No wind100%30.12 "Hg2 mi
5:00 AM50 °FFog.No wind100%30.09 "Hg1 mi
4:00 AM52 °FFog.No wind100%30.09 "Hg3 mi
3:00 AM54 °FClear.No wind100%30.09 "Hg10 mi
2:00 AM55 °FClear.No wind100%30.12 "Hg5 mi
1:00 AM55 °FClear.No wind94%30.12 "Hg10 mi
12:00 AM57 °FClear.3 mph88%30.12 "Hg10 mi
11:00 PM
Sep 20
59 °FClear.3 mph88%30.12 "Hg10 mi
10:00 PM61 °FClear.3 mph88%30.09 "Hg10 mi
9:00 PM63 °FClear.3 mph83%30.09 "Hg10 mi
8:00 PM66 °FClear.3 mph73%30.07 "Hg5 mi
7:00 PM72 °FClear.6 mph65%30.07 "Hg5 mi
6:00 PM75 °FClear.8 mph50%30.04 "Hg10 mi
5:00 PM77 °FPassing clouds.7 mph51%30.04 "HgN/A
4:00 PM79 °FScattered clouds.6 mph51%30.04 "HgN/A
3:00 PM77 °FScattered clouds.7 mph51%30.07 "HgN/A
2:00 PM77 °FScattered clouds.9 mph51%30.07 "HgN/A
Weather by CustomWeather, © 2014

See weather overviewHow to use our weather pages